Regional Weather Roundup
Issued by NWS

Home | Current Version | Previous Version | Graphics & Text | Print | Product List | Glossary On
Versions: 1 2 3 4 5 6 7 8 9 10 11 12 13 14 15 16 17 18 19 20 21 22 23 24 25 26 27 28 29 30 31 32 33 34 35 36 37 38 39 40 41 42 43 44 45 46 47 48 49 50
762
ASUS43 KDMX 300701
RWRIA

WEATHER ROUNDUP FOR IOWA
NATIONAL WEATHER SERVICE DES MOINES IA
200 AM CDT THU MAR 30 2017

NOTE: "FAIR" INDICATES FEW OR NO CLOUDS BELOW 12,000 FEET WITH NO
SIGNIFICANT WEATHER AND/OR OBSTRUCTIONS TO VISIBILITY.

* - THESE STATIONS ARE NOT NWS STATIONS...THUS NOT UNDER NWS
QUALITY CONTROL.  THEY ALSO DO NOT REPORT WEATHER SUCH
AS PRECIPITATION OR FOG.

IAZ001>003-012>014-020>022-031>034-043>046-300800-
   NORTHWEST IOWA

CITY           SKY/WX    TMP DP  RH WIND       PRES   REMARKS
CARROLL *      CLOUDY    41  41 100 E16       29.79F
CHEROKEE *     CLOUDY    39  38  96 E15       29.86F WCI  30
DENISON *      CLOUDY    39  39 100 E21G28    29.78F WCI  29
LE MARS *      CLOUDY    41  37  87 NE16G25   29.87F
ORANGE CITY *  CLOUDY    39  37  93 E13G20    29.88F WCI  32
SHELDON *      CLOUDY    39  36  87 E16G24    29.88F WCI  30
SIOUX CITY     CLOUDY    40  38  93 NE15G23   29.84F WCI  32
SPENCER        CLOUDY    39  37  92 E22       29.89F WCI  29
STORM LAKE *   CLOUDY    37  37 100 E21       29.84F WCI  27
$$

IAZ055>058-069>071-079>083-090>094-300800-
   SOUTHWEST IOWA

CITY           SKY/WX    TMP DP  RH WIND       PRES   REMARKS
ATLANTIC *     CLOUDY    43  41  93 NE17G26   29.70F
AUDUBON *      CLOUDY    41  37  87 NE22G28   29.73F
CLARINDA *     CLOUDY    46  45  93 E17G24    29.66F
COUNCIL BLFS * CLOUDY    43  43 100 NE16G24   29.70S
CRESTON *      CLOUDY    43  43 100 E25G35    29.70F FOG
HARLAN  *      CLOUDY    41  41 100 NE17G31   29.74F
LAMONI         LGT RAIN  44  43  96 NE18G25   29.69F FOG
RED OAK *      CLOUDY    45  43  93 NE17      29.66S
SHENANDOAH *   CLOUDY    46  45  93 NE15      29.66R
$$

IAZ047>049-059>061-072>074-084-300800-
   CENTRAL IOWA

CITY           SKY/WX    TMP DP  RH WIND       PRES   REMARKS
AMES           CLOUDY    41  41 100 E12       29.81S
ANKENY *       CLOUDY    43  39  87 E9        29.80F
BOONE *        CLOUDY    41  41 100 E18       29.80S
CHARITON *     LGT RAIN  43  41  93 E12       29.76R
DES MOINES     CLOUDY    44  40  85 E15G22    29.78F
GRINNELL*      CLOUDY    41  40  94 E21G26    29.79F
MARSHALLTOWN   CLOUDY    41  39  93 E23       29.79F
NEWTON *       CLOUDY    43  41  93 E20G26    29.77F
PELLA *        LGT RAIN  42  41  97 E14G22    29.77F
PERRY *        CLOUDY    42  40  93 E13G20    29.80S
$$

IAZ004>006-015-016-023>025-035-036-300800-
   NORTH CENTRAL IOWA

CITY           SKY/WX    TMP DP  RH WIND       PRES   REMARKS
ALGONA *       CLOUDY    39  39 100 E15G21    29.87F WCI  31
CLARION *      CLOUDY    39  39 100 E26G32    29.84F WCI  28
ESTHERVILLE    LGT RAIN  38  38 100 NE18      29.90F WCI  28
FORT DODGE *   CLOUDY    39  36  87 E18       29.85F WCI  30
MASON CITY     CLOUDY    38  36  92 E20G30    29.89F WCI  28
FOREST CITY *  CLOUDY    37  36  93 E15G26    29.88F WCI  28
WEBSTER CITY * CLOUDY    41  37  87 E20G26    29.82R
IOWA FALLS *   CLOUDY    40  38  93 E17G29    29.84F WCI  32
$$

IAZ007>011-017>019-026>030-037>042-050>054-066-300800-
   NORTHEAST IOWA

CITY           SKY/WX    TMP DP  RH WIND       PRES   REMARKS
CEDAR RAPIDS   LGT RAIN  41  41 100 E26G36    29.81F
CHARLES CITY * CLOUDY    39  39 100 E23G29    29.88F WCI  29
CLINTON *      LGT RAIN  42  40  92 E28G33    29.83F FOG
DECORAH *      LGT RAIN  37  36  93 E18G28    29.92F WCI  27
DUBUQUE        LGT RAIN  40  38  93 E18       29.88F WCI  31
MONTICELLO *   LGT RAIN  41  39  93 NE14G23   29.87F
OELWEIN *      LGT RAIN  39  39 100 E21G30    29.86S WCI  29
WATERLOO       CLOUDY    40  37  89 E23G29    29.85F WCI  30
$$

IAZ064-065-067-068-078-300800-
   EAST CENTRAL IOWA

CITY           SKY/WX    TMP DP  RH WIND       PRES   REMARKS
DAVENPORT      LGT RAIN  42  40  92 E15       29.86F
IOWA CITY      RAIN      43  40  89 E15G22    29.83F FOG
MUSCATINE *    LGT RAIN  45  43  93 E18       29.80F
QUAD CITIES    LGT RAIN  44  41  89 E21G29    29.84F
$$

IAZ062-063-075>077-085>089-095>099-300800-
   SOUTHEAST IOWA

CITY           SKY/WX    TMP DP  RH WIND       PRES   REMARKS
BURLINGTON     CLOUDY    47  47 100 NE15      29.75S
FAIRFIELD *    CLOUDY    43  43 100 NE14G23   29.74F
FORT MADISON * CLOUDY    46  46 100 NE12G18   29.73F FOG
KEOKUK *       LGT RAIN  48  48 100 NE10      29.70F
OSKALOOSA *    LGT RAIN  42  41  97 E23       29.74F
OTTUMWA        RAIN      44  43  96 E16       29.74F FOG
WASHINGTON *   CLOUDY    43  43 100 NE17G24   29.78F
$$

ABBREVIATIONS USED IN REMARKS
   TC - TEMPERATURES IN CELSIUS
  WCI - WIND CHILL INDEX
   HX - HEAT INDEX
  VSB - VISIBILITY
$$





USA.gov is the U.S. government's official web portal to all federal, state and local government web resources and services.